This is the latest recevied weather packets stored in our database for station/object WA1TYB-13. If no packets are shown the sender has not sent any weather packets the latest 10 day(s).
| Time | Temp. | Humidity | Pressure | Rain* | Wind** | Luminosity | Snow |
|---|---|---|---|---|---|---|---|
| 1777553372 | 0° C | 81% | 1026.4 hPa | 0 mm | - | 25 W/m² | - |
| 1777553068 | 0° C | 80% | 1026.1 hPa | 0 mm | - | 20 W/m² | - |
| 1777552763 | 0° C | 79% | 1026.2 hPa | 0 mm | - | 15 W/m² | - |
| 1777552459 | 0° C | 78% | 1026.2 hPa | 0 mm | - | 11 W/m² | - |
| 1777552156 | 0° C | 76% | 1026.3 hPa | 0 mm | - | 7 W/m² | - |
| 1777551852 | 0.56° C | 75% | 1026.3 hPa | 0 mm | - | 6 W/m² | - |
| 1777551550 | 0.56° C | 75% | 1026.3 hPa | 0 mm | - | 3 W/m² | - |
| 1777551247 | 0.56° C | 74% | 1026.2 hPa | 0 mm | - | 1 W/m² | - |
| 1777550944 | 0.56° C | 74% | 1026.2 hPa | 0 mm | - | 0 W/m² | - |
| 1777550641 | 0.56° C | 74% | 1026.4 hPa | 0 mm | - | 0 W/m² | - |
| 1777550336 | 0.56° C | 74% | 1026.6 hPa | 0 mm | - | 0 W/m² | - |
| 1777550032 | 0.56° C | 74% | 1026.3 hPa | 0 mm | - | 0 W/m² | - |
| 1777549729 | 0.56° C | 75% | 1026.3 hPa | 0 mm | - | 0 W/m² | - |
| 1777549424 | 0.56° C | 75% | 1026.3 hPa | 0 mm | - | 0 W/m² | - |
| 1777549121 | 0° C | 76% | 1026.3 hPa | 0 mm | - | 0 W/m² | - |
| 1777548817 | 0° C | 77% | 1026.4 hPa | 0 mm | - | 0 W/m² | - |
| 1777548515 | 0° C | 77% | 1026.2 hPa | 0 mm | - | 0 W/m² | - |
| 1777548212 | 0° C | 76% | 1026.1 hPa | 0 mm | - | 0 W/m² | - |
| 1777547908 | 0.56° C | 76% | 1025.8 hPa | 0 mm | - | 0 W/m² | - |
| 1777547604 | 0.56° C | 74% | 1026.1 hPa | 0 mm | - | 0 W/m² | - |
| 1777547301 | 1.11° C | 74% | 1026.1 hPa | 0 mm | - | 0 W/m² | - |
| 1777546998 | 1.11° C | 74% | 1026.1 hPa | 0 mm | - | 0 W/m² | - |
| 1777546696 | 0.56° C | 74% | 1026.2 hPa | 0 mm | - | 0 W/m² | - |
| 1777546392 | 0.56° C | 75% | 1026.1 hPa | 0 mm | - | 0 W/m² | - |
| 1777546089 | 0.56° C | 76% | 1026 hPa | 0 mm | - | 0 W/m² | - |
* Rain latest hour (hover to see other rain measurements)
** Current wind speed in m/s (hover to see current wind gust speed)